Pagina principale
METAR-TAF:

METAR-TAF

Aeroporti :

Bric della Croce

Torino, Italia

latitudine: 45-02N, longitudine: 007-44E, altezza: 709 m

Osservazione

Il bollettino è stato emesso 3 ore e 6 minuti fa, alle 17:55 UTC
Vento 2 kt da est
Temperature 17°C
Umidità 100%
Pressione 1015 hPa
Visibilità 10 km o più
nessuna nube inferiore a 1500 m e nessun cumulonembo

METAR: LIMK 031755Z 08002KT CAVOK 17/17 Q1015

Ora: 23:01 (21:01 UTC)


TAF: mancante

Osservazioni e previsioni meteorologiche di più di 4000 aeroporti (messaggi METAR e TAF).

Le stazioni disponibili sono rappresentate dai dischi gialli e rossi sulla carta.

Puntare il mouse per vedere il nome della stazione.

Clicca sopra per visualizzare le osservazioni e previsioni meteorologiche.

Per cambiare la mappa : fare clic sui pulsanti verdi con una croce nera per ingrandire, il pulsante verde con un trattino per diminuire, o sulla freccia verde per le mappe adiacenti.


METAR-TAF: